Christchurch, New Zealand

1:38 AM NZST on July 22, 2017 (GMT +1200)
Christchurch International

Weather History for NZCH - February, 2013

Change the Weather History Date:

Tuesday, February 5, 2013

  Actual Average Record
Temperature  
Mean Temperature 54 °F -  
Max Temperature 60 °F 68 °F 84 °F (1998)
Min Temperature 48 °F 50 °F 39 °F (2015)
Degree Days  
Heating Degree Days 11    
Growing Degree Days 4 (Base 50)    
Moisture  
Dew Point 43 °F    
Average Humidity 71    
Maximum Humidity 94    
Minimum Humidity 48    
Precipitation  
Precipitation 0.00 in - - ()
Sea Level Pressure  
Sea Level Pressure 30.00 in    
Wind  
Wind Speed 16 mph ()    
Max Wind Speed 26 mph    
Max Gust Speed 34 mph    
Visibility 6.2 miles    
Events Rain    
Averages and records for this station are not official NWS values.
T = Trace of Precipitation, MM = Missing Value Source: Averaged Metar Reports

Daily Weather History Graph

Daily Weather History Graph

Search for Another Location

Airport or City:

Trip Planner

Search our weather history database for the weather conditions in past years. The results will help you decide how hot, cold, wet, or windy it might be!

Date:

Astronomy

Feb. 05, 2013 Rise Set
Actual Time 6:35 AM NZDT 8:51 PM NZDT
Civil Twilight 6:03 AM NZDT 9:22 PM NZDT
Nautical Twilight 5:24 AM NZDT 10:01 PM NZDT
Astronomical Twilight 4:40 AM NZDT 10:45 PM NZDT
Moon 12:57 AM NZDT (2/5) 4:09 PM NZDT (2/5)
Length of Visible Light 15h 18m
Length of Day
14h 15m
Waning Crescent, 35% of the Moon is Illuminated
Feb 5
Waning Crescent
Feb 10
New
Feb 18
First Quarter
Feb 26
Full
Mar 5
Last Quarter

Hourly Weather History & Observations

Time (NZDT) Temp. Dew Point Humidity Pressure Visibility Wind Dir Wind Speed Gust Speed Precip Events Conditions
12:00 AM 50.0 °F 48.2 °F 94% 29.74 in 6.2 mi SSW 19.6 mph - N/A Rain Rain
1:00 AM 51.8 °F 44.6 °F 76% 29.77 in 6.2 mi SSW 21.9 mph - N/A Rain Rain
2:00 AM 50.0 °F 42.8 °F 76% 29.80 in 6.2 mi SSW 26.5 mph - N/A Rain Rain
3:00 AM 50.0 °F 44.6 °F 82% 29.83 in 6.2 mi SW 17.3 mph - N/A   Mostly Cloudy
4:00 AM 48.2 °F 44.6 °F 87% 29.83 in 6.2 mi SW 19.6 mph - N/A Rain Rain
5:00 AM 48.2 °F 44.6 °F 87% 29.86 in 6.2 mi SW 15.0 mph - N/A Rain Rain
6:00 AM 48.2 °F 44.6 °F 87% 29.89 in 6.2 mi WSW 13.8 mph - N/A Rain Rain
7:00 AM 48.2 °F 42.8 °F 82% 29.92 in 6.2 mi WSW 13.8 mph - N/A Rain Rain Showers
8:00 AM 48.2 °F 44.6 °F 87% 29.95 in 6.2 mi WSW 15.0 mph - N/A Rain Rain Showers
9:00 AM 48.2 °F 44.6 °F 87% 30.01 in 6.2 mi SW 15.0 mph - N/A Rain Rain Showers
10:00 AM 51.8 °F 42.8 °F 71% 30.04 in 6.2 mi WSW 16.1 mph - N/A   Mostly Cloudy
11:00 AM 50.0 °F 44.6 °F 82% 30.06 in 6.2 mi SW 16.1 mph 27.6 mph N/A Rain Rain Showers
12:00 PM 51.8 °F 44.6 °F 76% 30.06 in 6.2 mi SW 20.7 mph - N/A Rain Rain Showers
1:00 PM 55.4 °F 48.2 °F 77% 30.06 in 6.2 mi SW 18.4 mph 29.9 mph N/A Rain Rain Showers
2:00 PM 57.2 °F 37.4 °F 48% 30.09 in 6.2 mi SSW 23.0 mph - N/A   Mostly Cloudy
3:00 PM 59.0 °F 39.2 °F 48% 30.09 in 6.2 mi SSW 19.6 mph 34.5 mph N/A   Mostly Cloudy
4:00 PM 59.0 °F 39.2 °F 48% 30.09 in 6.2 mi SSW 20.7 mph - N/A   Mostly Cloudy
5:00 PM 59.0 °F 41.0 °F 51% 30.09 in 6.2 mi SSW 19.6 mph - N/A   Scattered Clouds
6:00 PM 60.8 °F 41.0 °F 48% 30.12 in 6.2 mi SSW 18.4 mph - N/A   Scattered Clouds
7:00 PM 57.2 °F 41.0 °F 55% 30.12 in 6.2 mi South 17.3 mph - N/A   Scattered Clouds
8:00 PM 55.4 °F 41.0 °F 58% 30.15 in 6.2 mi SSW 15.0 mph - N/A   Scattered Clouds
9:00 PM 53.6 °F 42.8 °F 67% 30.15 in 6.2 mi SSW 11.5 mph - N/A   Scattered Clouds
10:00 PM 53.6 °F 42.8 °F 67% 30.18 in 6.2 mi SSW 9.2 mph - N/A   Scattered Clouds
11:00 PM 53.6 °F 42.8 °F 67% 30.18 in 6.2 mi SSW 10.4 mph - N/A   Mostly Cloudy